Tracking 29892 objects as of 21-Nov-2024
HD Live streaming from Space Station
objects crossing your sky now

NUSAT-31 (RUBY PAYNE-S)

Track NUSAT-31 (RUBY PAYNE-S) now!
10-day predictions


NORAD ID: 52752
Int'l Code: 2022-057W
Perigee: 442.9 km
Apogee: 452.0 km
Inclination: 97.6 °
Period: 93.4 minutes
Semi major axis: 6818 km
RCS: Unknown
Launch date: May 25, 2022
Source: Argentina (ARGN)
Launch site: AIR FORCE EASTERN TEST RANGE (AFETR)
Your satellite tracking list
Your tracking list is empty




NASA's NSSDC Master Catalog

Two Line Element Set (TLE):
1 52752U 22057W   24326.13871510  .00044692  00000-0  10463-2 0  9991
2 52752  97.5941  95.0650 0006710 294.5597  65.4950 15.41966383138498
Source of the keplerian elements: AFSPC